[[{"header":{"parameterUnit":"m.s-1","parameterCategory":1,"la1":30.2991,"la2":30.254,"lo1":-89.0895,"lo2":-89.0444,"dy":0.0017,"dx":0.0017,"nx":28,"ny":28,"refTime":"2025-04-28T03:00:00:Z","depth":0,"parameterNumber":2,"parameterNumberName":"U-component_of_WINDS"},"data":[0,0,0,0,0,0,0,0,0,0,0,0,0,0,0,0,0,0,0,0,0,0,0,0,0,0,0,0,0,0,0,0,0,0,0,0,0,0,0,0,0,0,0,0,0,0,0,0,0,0,0,0,0,0,0,0,0,0,1.5615,1.5616,0,1.575,1.5752,1.5753,1.5798,1.5798,1.5797,1.5797,1.5933,1.5937,1.5941,0,0,0,0,0,0,0,0,0,0,0,0,0,1.5394,1.5398,1.5615,1.5616,1.5618,1.575,1.5752,1.5753,1.5799,1.5798,1.5797,1.5797,1.5932,1.5937,1.5942,0,0,0,0,0,0,0,0,0,0,0,0,0,1.5505,1.5399,1.5614,1.5657,1.5662,1.5749,1.5752,1.5754,1.5799,1.5798,1.5797,1.5796,1.593,1.5936,1.5943,1.5997,0,0,1.5962,1.5964,0,0,0,0,0,0,0,0,1.5499,1.5513,1.5649,1.5654,1.566,1.5757,1.5724,1.5836,1.5799,1.5747,1.5797,1.5796,1.5875,1.5886,1.5913,1.6004,1.601,1.5962,1.5966,1.5969,1.597,0,0,0,0,0,0,0,1.5491,1.5508,1.5668,1.5651,1.5657,1.5668,1.5683,1.5745,1.5814,1.5751,1.5755,1.577,1.5878,1.5907,1.5916,1.6012,1.5962,1.5967,1.5971,1.5974,1.6154,1.6155,0,0,0,0,0,0,1.5477,1.5501,1.5664,1.5672,1.5576,1.5673,1.5689,1.5726,1.5813,1.5826,1.5771,1.5772,1.5897,1.5909,1.5921,1.5991,1.5968,1.5974,1.5978,1.6153,1.6154,1.6156,0,0,0,0,0,0,1.5472,1.5491,1.5658,1.5588,1.561,1.5677,1.5718,1.5729,1.5758,1.5828,1.584,1.5788,1.5896,1.5913,1.5978,1.5996,1.5977,1.5983,1.6152,1.6153,1.6155,1.6131,0,0,0,0,0,0,1.5465,1.5489,1.5511,1.5588,1.5614,1.5714,1.572,1.5733,1.5769,1.5772,1.5847,1.5859,1.5897,1.5969,1.5984,1.6005,1.5988,1.615,1.6153,1.6154,1.613,1.6131,1.6132,0,0,0,0,0,1.5457,1.5498,1.5512,1.5531,1.5643,1.5715,1.5729,1.5772,1.577,1.5793,1.5838,1.5857,1.5992,1.5975,1.5993,1.6015,1.615,1.6152,1.6154,1.613,1.6131,1.6132,0,0,0,0,0,0,1.542,1.5509,1.5525,1.5592,1.5646,1.5722,1.5752,1.5773,1.5827,1.5827,1.5878,1.5895,1.5956,1.5993,1.5972,1.6073,1.6072,1.6078,1.6047,1.6049,1.605,1.6039,1.5993,0,0,0,0,0,1.542,1.5472,1.5546,1.5599,1.5625,1.5683,1.5716,1.5745,1.5802,1.5825,1.5875,1.5928,1.5983,1.6018,1.6072,1.6136,1.6153,1.616,1.6161,1.6162,1.6166,1.6202,1.6206,1.6163,1.6163,1.6163,0,0,1.542,1.5475,1.5504,1.5593,1.5637,1.5689,1.5702,1.5756,1.5795,1.5833,1.5898,1.5936,1.6,1.6064,1.6095,1.6097,1.6182,1.6165,1.6165,1.6169,1.6205,1.6209,1.6212,1.6165,1.6165,1.6164,0,0,1.5446,1.5493,1.5542,1.5587,1.5655,1.5694,1.5705,1.5779,1.5806,1.5872,1.5902,1.5948,1.6041,1.6085,1.612,1.6163,1.6182,1.6179,1.6184,1.6219,1.6222,1.6225,1.624,1.6245,1.6184,1.6184,1.6184,0,1.5437,1.5517,1.5564,1.5617,1.5655,1.5692,1.5741,1.5782,1.5864,1.5889,1.5889,1.6007,1.6053,1.6128,1.6138,1.6165,1.6179,1.6171,1.6218,1.6221,1.6225,1.624,1.6245,1.6183,1.6183,1.6183,1.6183,0,1.5503,1.5558,1.5589,1.5667,1.5709,1.5759,1.5813,1.5849,1.5874,1.5913,1.5979,1.6035,1.6101,1.6122,1.6147,1.62,1.6199,1.6208,1.6208,1.6228,1.6242,1.6248,1.6181,1.6182,1.6182,1.6182,0,0,1.5509,1.5613,1.5624,1.566,1.5738,1.5781,1.5833,1.5898,1.5928,1.5983,1.6027,1.6105,1.6114,1.6153,1.6184,1.6214,1.6244,1.622,1.6222,1.6221,1.6305,1.6298,1.6303,1.6257,1.6259,1.626,1.63,0,1.5544,1.564,1.5684,1.576,1.581,1.5847,1.5893,1.5945,1.5982,1.603,1.6071,1.6126,1.6134,1.6157,1.6189,1.6233,1.6261,1.6231,1.6298,1.63,1.628,1.6311,1.6303,1.6339,1.6306,1.6307,1.6308,0,1.5599,1.5655,1.5736,1.5808,1.5831,1.5871,1.5934,1.598,1.604,1.6065,1.6108,1.6138,1.6193,1.6189,1.6266,1.6244,1.6275,1.63,1.6303,1.631,1.6304,1.6318,1.6351,1.6356,1.6317,1.6316,1.6316,0,1.5594,1.569,1.5751,1.5781,1.5866,1.5893,1.593,1.5989,1.6025,1.6081,1.6105,1.6165,1.6198,1.6244,1.6288,1.6282,1.636,1.636,1.6382,1.6381,1.6396,1.6394,1.6433,1.6417,1.6417,1.6416,1.6416,0,1.5629,1.5677,1.575,1.5787,1.5842,1.5891,1.5943,1.5983,1.6035,1.608,1.6115,1.6156,1.6213,1.6261,1.6297,1.6354,1.6369,1.639,1.6399,1.6387,1.6384,1.6406,1.6405,1.6418,1.6418,1.6417,1.6417,0,1.5632,1.5683,1.5752,1.5828,1.5848,1.5885,1.5949,1.5986,1.6026,1.6082,1.6098,1.616,1.6218,1.6267,1.6344,1.6368,1.6427,1.6438,1.6407,1.6412,1.643,1.6427,1.6484,1.6494,1.6471,1.6471,1.6471,0,1.5651,1.5689,1.5769,1.5802,1.5839,1.5891,1.5929,1.5979,1.6017,1.6088,1.6116,1.6177,1.6229,1.6321,1.6372,1.643,1.6442,1.6458,1.6451,1.6438,1.6442,1.6439,1.6442,1.6458,1.6458,1.6458,1.6458,0,1.5678,1.5702,1.5755,1.5818,1.5862,1.5913,1.5965,1.599,1.6049,1.609,1.615,1.6191,1.6269,1.6329,1.6394,1.6431,1.6454,1.646,1.6468,1.6456,1.6436,1.6446,1.6408,1.6458,1.6458,1.6458,1.6458,1.6458,1.5689,1.5725,1.5787,1.5845,1.589,1.5938,1.5976,1.6021,1.6073,1.6141,1.6168,1.623,1.6288,1.6377,1.6414,1.6463,1.6466,1.6477,1.648,1.6482,1.648,1.6429,1.6475,1.6475,1.6475,1.6475,1.6475,0,1.5718,1.576,1.5813,1.5885,1.5931,1.5951,1.6009,1.6046,1.61,1.6153,1.6204,1.6273,1.6331,1.6387,1.6448,1.6476,1.6488,1.649,1.6489,1.6497,1.6474,1.6461,1.648,1.648,1.648,1.648,1.648,1.648,1.5738,1.5799,1.583,1.5913,1.5954,1.6016,1.6048,1.6092,1.6134,1.6211,1.626,1.6296,1.635,1.6416,1.647,1.6485,1.6505,1.6504,1.6521,1.6499,1.6498,1.6497,1.6485,1.6508,1.6508,1.654,1.654,1.654]},{"header":{"parameterUnit":"m.s-1","parameterCategory":1,"la1":30.2991,"la2":30.254,"lo1":-89.0895,"lo2":-89.0444,"dy":0.0017,"dx":0.0017,"nx":28,"ny":28,"refTime":"2025-04-28T03:00:00:Z","depth":0,"parameterNumber":3,"parameterNumberName":"V-component_of_WINDS"},"data":[0,0,0,0,0,0,0,0,0,0,0,0,0,0,0,0,0,0,0,0,0,0,0,0,0,0,0,0,0,0,0,0,0,0,0,0,0,0,0,0,0,0,0,0,0,0,0,0,0,0,0,0,0,0,0,0,0,0,4.6809,4.6809,0,4.6789,4.6788,4.6788,4.6775,4.6774,4.6774,4.6774,4.6748,4.6747,4.6747,0,0,0,0,0,0,0,0,0,0,0,0,0,4.6835,4.6834,4.6809,4.6809,4.6809,4.6789,4.6788,4.6788,4.6775,4.6774,4.6774,4.6774,4.6748,4.6747,4.6746,0,0,0,0,0,0,0,0,0,0,0,0,0,4.682,4.6834,4.6809,4.68,4.6799,4.6789,4.6788,4.6788,4.6775,4.6774,4.6774,4.6774,4.6748,4.6747,4.6746,4.6742,0,0,4.6743,4.6743,0,0,0,0,0,0,0,0,4.6821,4.6819,4.6802,4.6801,4.6799,4.6784,4.6788,4.6772,4.6775,4.6784,4.6774,4.6774,4.676,4.6758,4.6754,4.6741,4.674,4.6743,4.6743,4.6742,4.6742,0,0,0,0,0,0,0,4.6822,4.682,4.6801,4.6801,4.68,4.6796,4.6793,4.6785,4.6772,4.6783,4.6782,4.678,4.6759,4.6755,4.6753,4.674,4.6743,4.6743,4.6742,4.6742,4.6725,4.6725,0,0,0,0,0,0,4.6825,4.6821,4.6802,4.68,4.681,4.6795,4.6793,4.6789,4.6772,4.677,4.678,4.6779,4.6757,4.6754,4.6752,4.6748,4.6742,4.6741,4.6741,4.6725,4.6725,4.6725,0,0,0,0,0,0,4.6825,4.6823,4.6802,4.681,4.6807,4.6795,4.6791,4.6789,4.6785,4.677,4.6768,4.6778,4.6756,4.6753,4.6746,4.6746,4.6741,4.674,4.6725,4.6725,4.6725,4.6738,0,0,0,0,0,0,4.6826,4.6824,4.6822,4.681,4.6807,4.6797,4.6791,4.6788,4.6784,4.6782,4.6768,4.6765,4.6756,4.6747,4.6745,4.6745,4.6739,4.6725,4.6725,4.6725,4.6737,4.6739,4.674,0,0,0,0,0,4.6827,4.6825,4.6822,4.682,4.6806,4.6797,4.6795,4.6786,4.6784,4.6782,4.6774,4.6766,4.6747,4.6747,4.6744,4.6744,4.6725,4.6725,4.6725,4.6737,4.6738,4.674,0,0,0,0,0,0,4.6835,4.6823,4.682,4.6814,4.6807,4.6795,4.6793,4.6788,4.678,4.6779,4.6766,4.6763,4.6757,4.675,4.6749,4.674,4.6735,4.6735,4.6745,4.6746,4.6747,4.6749,4.6739,0,0,0,0,0,4.6836,4.6832,4.6822,4.6818,4.6815,4.6805,4.6801,4.6795,4.6786,4.6782,4.6773,4.6764,4.6756,4.6751,4.6743,4.6737,4.6734,4.6736,4.6737,4.6738,4.6737,4.6735,4.6736,4.6726,4.6726,4.6726,0,0,4.6838,4.6832,4.6829,4.6819,4.6813,4.6808,4.6802,4.6796,4.6792,4.6781,4.6774,4.6767,4.6756,4.675,4.6746,4.6743,4.674,4.6738,4.6739,4.6738,4.6735,4.6736,4.6737,4.6727,4.6727,4.6727,0,0,4.684,4.6834,4.6831,4.6826,4.6818,4.6812,4.6811,4.6801,4.6796,4.679,4.6782,4.6776,4.6763,4.6756,4.6751,4.6754,4.6746,4.6751,4.6756,4.6754,4.6755,4.6756,4.6757,4.6758,4.6751,4.6751,4.6751,0,4.6842,4.6836,4.683,4.6826,4.6822,4.6814,4.6811,4.6806,4.6794,4.6792,4.6789,4.6774,4.6766,4.6759,4.676,4.6756,4.6755,4.6752,4.6756,4.6756,4.6757,4.6758,4.6758,4.6752,4.6752,4.6752,4.6752,0,4.6841,4.6836,4.6835,4.6827,4.6823,4.6819,4.6812,4.6809,4.6804,4.6798,4.6792,4.6783,4.6774,4.6772,4.6766,4.6764,4.6763,4.6759,4.6753,4.6759,4.6759,4.676,4.6753,4.6753,4.6752,4.6752,0,0,4.6843,4.6835,4.6834,4.6832,4.6824,4.682,4.6816,4.681,4.6807,4.6801,4.6797,4.6788,4.6785,4.6779,4.6773,4.6771,4.6775,4.6767,4.6766,4.6768,4.6773,4.6777,4.6777,4.6771,4.6771,4.6771,4.6774,0,4.6843,4.6838,4.6834,4.6829,4.6826,4.682,4.6817,4.6812,4.6807,4.6803,4.6797,4.6791,4.6787,4.6784,4.6782,4.6775,4.6776,4.6775,4.6767,4.6767,4.6769,4.6777,4.678,4.6783,4.6775,4.6775,4.6775,0,4.6842,4.6838,4.6835,4.683,4.6828,4.6825,4.682,4.6816,4.681,4.6807,4.6803,4.6797,4.6793,4.6789,4.6784,4.6783,4.678,4.6777,4.6777,4.6774,4.677,4.6775,4.6784,4.6785,4.6775,4.6775,4.6775,0,4.6845,4.6839,4.6837,4.6834,4.6828,4.6827,4.6824,4.6818,4.6815,4.681,4.6808,4.6802,4.6799,4.6794,4.6788,4.6786,4.6783,4.6778,4.6779,4.678,4.6778,4.6778,4.6786,4.6777,4.6777,4.6777,4.6777,0,4.6845,4.6843,4.6838,4.6836,4.6835,4.683,4.6827,4.6824,4.6819,4.6817,4.6811,4.6808,4.68,4.6796,4.6791,4.6787,4.6786,4.6783,4.6781,4.6783,4.6783,4.6779,4.6779,4.6777,4.6777,4.6777,4.6777,0,4.6847,4.6844,4.6841,4.6836,4.6835,4.6834,4.683,4.6828,4.6824,4.6821,4.682,4.6813,4.6809,4.6803,4.6795,4.6792,4.6789,4.6787,4.6792,4.6791,4.6792,4.6792,4.6798,4.6798,4.679,4.679,4.679,0,4.6847,4.6846,4.6842,4.6841,4.6839,4.6837,4.6835,4.683,4.6828,4.6823,4.6822,4.6818,4.6814,4.6808,4.6802,4.6797,4.6794,4.6797,4.6793,4.6796,4.6794,4.6794,4.6794,4.6797,4.6797,4.6797,4.6797,0,4.6847,4.6847,4.6844,4.6843,4.6841,4.6839,4.6836,4.6835,4.6831,4.6829,4.6825,4.6823,4.6818,4.6814,4.6809,4.6805,4.68,4.6799,4.6799,4.68,4.6803,4.6802,4.6793,4.6798,4.6798,4.6798,4.6798,4.6798,4.6848,4.6847,4.6846,4.6844,4.6842,4.6841,4.684,4.6837,4.6835,4.6831,4.6829,4.6826,4.6822,4.6815,4.6812,4.681,4.6807,4.6807,4.6807,4.6807,4.6808,4.6805,4.6809,4.6808,4.6808,4.6808,4.6808,0,4.6848,4.6848,4.6846,4.6845,4.6844,4.6842,4.684,4.6839,4.6837,4.6835,4.6832,4.6829,4.6826,4.6822,4.6818,4.6817,4.6815,4.6816,4.6816,4.6815,4.681,4.681,4.6818,4.6818,4.6818,4.6818,4.6818,4.6818,4.6848,4.6848,4.6847,4.6846,4.6845,4.6844,4.6843,4.6841,4.684,4.6837,4.6835,4.6833,4.683,4.6827,4.6824,4.6823,4.6821,4.6823,4.6821,4.6816,4.6815,4.6814,4.6814,4.6823,4.6823,4.6826,4.6826,4.6826]}]]